Regional Weather Roundup
Issued by NWS Upton, NY

Current Version | Previous Version | Graphics & Text | Print | Product List | Glossary Off
Versions: 1 2 3 4 5 6 7 8 9 10 11 12 13 14 15 16 17 18 19 20 21 22 23 24 25 26 27 28 29 30 31 32 33 34 35 36 37 38 39 40 41 42 43 44 45 46 47 48 49 50

000
ASUS41 KOKX 292304
RWROKX

REGIONAL WEATHER ROUNDUP
NATIONAL WEATHER SERVICE NEW YORK NY
700 PM EDT SAT AUG 29 2015

NOTE: "FAIR" INDICATES FEW OR NO CLOUDS BELOW 12,000 FEET WITH NO
SIGNIFICANT WEATHER AND/OR OBSTRUCTIONS TO VISIBILITY.

NYZ071-072-176-178-NJZ106-104-300000-
NEW YORK CITY METRO AREA


CITY           SKY/WX    TMP DP  RH WIND       PRES   REMARKS
CENTRAL PARK   CLEAR     79  58  48 CALM      30.13S
LAGUARDIA APRT PTCLDY    78  59  51 S15       30.10S
KENNEDY INTL   MOCLDY    77  62  59 S14       30.12F
NEWARK/LIBERTY PTCLDY    80  60  50 S9        30.10S
BRNX BOT. GARD   N/A     77  59  53 SE7       30.10S
TETERBORO      CLEAR     79  57  46 S9        30.09S
$$

NYZ177-179-078>081-300000-
LONG ISLAND NEW YORK

CITY           SKY/WX    TMP DP  RH WIND       PRES   REMARKS
FARMINGDALE    CLEAR     77  61  57 S15       30.12S
ISLIP          PTCLDY    76  61  59 S12       30.10S
SHIRLEY        CLEAR     76  62  62 SW8       30.12S
WESTHAMPTON    CLEAR     76  60  57 S8        30.13S
MONTAUK POINT    N/A     75  64  68 VRB6      30.13S
$$

NYZ052-065-067-300000-
HUDSON VALLEY

CITY           SKY/WX    TMP DP  RH WIND       PRES   REMARKS
WHITE PLAINS   PTCLDY    77  60  55 S7        30.10F
NEWBURGH       CLEAR     79  61  53 VRB5      30.10F
MONTGOMERY     CLEAR     77  64  64 SW3       30.09F
POUGHKEEPSIE   CLEAR     81  59  47 CALM      30.07F
ALBANY         MOCLDY    77  60  55 SE3       30.07F
$$

NJZ001-105-106-008-010-013-015-019>022-104-300000-
NEW JERSEY

CITY           SKY/WX    TMP DP  RH WIND       PRES   REMARKS
NEWARK/LIBERTY PTCLDY    80  60  50 S9        30.10S
TETERBORO      CLEAR     79  57  46 S9        30.09S
CALDWELL       PTCLDY    81  60  48 S9        30.09F
MORRISTOWN     MOCLDY    79  57  47 W7        30.10S
SOMERVILLE     CLEAR     81  60  48 CALM      30.07F
SUSSEX         CLEAR     78  62  57 CALM      30.10S
ANDOVER          N/A     75  64  68 CALM      30.11F
TRENTON        CLEAR     82  61  48 SW5       30.09F
MILLVILLE      PTCLDY    76  62  62 S6        30.13S
ATLANTIC CITY  CLEAR     77  60  55 S9        30.13S
WRIGHTSTOWN    NOT AVBL
TOMS RIVER     MOCLDY    75  59  57 S6        30.12S
BELMAR         CLEAR     75  57  53 S7        30.12S
$$

PAZ047>061-062-071-300000-
EASTERN PENNSYLVANIA

CITY           SKY/WX    TMP DP  RH WIND       PRES   REMARKS
PHILADELPHIA   MOCLDY    84  61  45 SW9       30.10F
ALLENTOWN      PTCLDY    81  63  54 S6        30.10S
SCRANTON       PTCLDY    81  59  47 W8        30.10F
$$

CTZ002-004>006-009-010-012-RIZ004-006-007-MAZ004-011-015-300000-
SOUTHERN NEW ENGLAND
 IN CT

CITY           SKY/WX    TMP DP  RH WIND       PRES   REMARKS
BRADLEY INTL   PTCLDY    78  56  46 SW6       30.08F
HARTFORD       CLEAR     81  56  42 W7        30.08F
DANBURY        CLEAR     75  60  59 CALM      30.11F
WTRBRY/OXFORD  CLEAR     77  57  50 CALM      30.14F
BRIDGEPORT     CLEAR     80  63  55 S10       30.10S
MERIDEN        CLEAR     78  57  48 S5        30.09F
NEW HAVEN      PTCLDY    76  62  62 S6        30.10F
CHESTER        NOT AVBL
GROTON         CLEAR     73  66  78 SW10      30.10S
WILLIMANTIC    CLEAR     78  58  49 CALM      30.10S

 IN RI

CITY           SKY/WX    TMP DP  RH WIND       PRES   REMARKS
PROVIDENCE     PTCLDY    76  57  51 SW10      30.10S
BLOCK ISLAND   CLEAR     73  64  73 SW12      30.12F
WESTERLY       CLEAR     75  63  66 SW12      30.11F

 IN MA

CITY           SKY/WX    TMP DP  RH WIND       PRES   REMARKS
BOSTON         MOCLDY    78  54  43 W10       30.08S
WORCESTER      PTCLDY    71  55  56 W6        30.12F
WESTFIELD      CLEAR     77  57  50 SW5       30.09F
PROVINCETOWN   PTCLDY    72  57  60 SW14      30.09S
NANTUCKET      PTCLDY    72  64  76 S10       30.12F
$$

ANZ330-335-338-340-345-350-353-355-300000-
COASTAL MARINE OBSERVATIONS


STATION/POSITION TIME  SKY/WX   TEMP    WIND        PRES    VSBY  WAVE
                                AIR SEA DIR/SP/G                  HT/PER
                 (UTC)          (F)     (DEG/KT/KT) (MB)    (MI)  (FT/S)
NY HARB ENTRANCE 2150            77 76  190/ 16/ 17 1019.4          3/10
4S FIRE IS       NOT AVBL
20S FIRE ISLAND  2150            76 76  190/ 12/ 14 1019.9          2/11
GREAT SOUTH BAY  NOT AVBL
23SW MTP         2250            74 74  210/ 10/ 12 1019.5          3/10
HUDSON CANYON    NOT AVBL
KINGS POINT      NOT AVBL
EXECUTION ROCKS  2200            79     170/ 10/ 14   N/A
CENTRAL LI SOUND NOT AVBL
EASTERN LI SOUND 2200            77 72  220/  4/  8   N/A
ROBBINS REEF     NOT AVBL
$$


>>>>>>>>>>>>>>>>>>>>>>>>>>>> KEY <<<<<<<<<<<<<<<<<<<<<<<<<<<
>                                                          <
>     SKY/WX - SKY CONDITION/PRESENT WEATHER               <
>     TMP    - TEMPERATURE IN FAHRENHEIT                   <
>     DP     - DEWPOINT IN FAHRENHEIT                      <
>     RH     - RELATIVE HUMIDITY IN PERCENT                <
>     WIND   - DIRECTION AND SPEED IN MPH                  <
>     PRES   - MEAN SEA LEVEL PRESSURE IN INCHES OF HG     <
>     WCI    - WIND CHILL INDEX                            <
>     VSB    - VISIBILITY IN MILES                         <
>     HX     - HEAT INDEX                                  <
>     TC     - TEMPERATURE IN CELSIUS                      <
>     VRB    - VARIABLE WIND DIRECTION                     <
>                                                          <
>>>>>>>>>>>>>>>>>>>>>>>>>>>> KEY <<<<<<<<<<<<<<<<<<<<<<<<<<<




USA.gov is the U.S. government's official web portal to all federal, state and local government web resources and services.